Find Starlink 4659

NORAD ID: 54841 Int'l Des: 2022-177 Owner: SPXS Country: US Constellation: starlink operational
LEOCIRCULAR

Live-Position

3D-Globus wird geladen...

Über Starlink 4659

Beschreibung wird geladen...

Nächste Überflüge

Passes for default location (London). Set your location on the main map for personalized predictions.

Höhenverlauf

Loading altitude history...

Zweizeiliger Elementsatz

1 54841U 22177X 26106.75783109 -.00001041 00000-0 -29144-4 0 9998
2 54841 43.0029 277.8073 0001279 262.6484 97.4222 15.26739481182785
Epoch: 16. Apr. 2026 • Age: 21 hours

Aktueller Status

Höhe 485.0 km
Geschwindigkeit 7.63 km/s
Subsatellitenpunkt 14.46°N, 137.19°W
Startdatum 28. Dez. 2022
Alter 3.3 years
Typ internet

Technische Details

Klassifizierung Payload
Masse 305.00 kg
Trockenmasse 290.00 kg
Gesamtmasse 305.00 kg
Länge 0.20 m
Durchmesser 2.80 m
Spannweite 9.00 m
Form Box + pan
Hersteller SPXS
Bus-Typ Starlink
Phasenstatus In Orbit
Besitzer/Staat SPXS/US

Most Searched